Showing default

YAOGAN-36 02C, 54045

Orbit data source: Space-Track

YAOGAN-36 02C, 54045 is a payload satellite owned by PLA GAD (CN) in LEO that was launched on Fri, 14 Oct 2022 UTC via a CHANG ZHENG 2D launch vehicle from the Xichang Space Center, China (XSC). Payload-class satellites include a variety of spacecraft equipped with specific instruments for various scientific and technological missions. These include communications satellites like Starlink; space stations such as the ISS; scientific satellites like the Hubble; Earth observation satellites from companies like Planet Labs, Umbra, and HawkEye 360; GPS; miniature CubeSats for education and research; and military/defense satellites.

Loading next visibility...
Identifier
54045, 2022-133D
Orbit
LEO
Country
Flag of CNCN / PRC
Related business
Manufacturer
SAST
Mission
Operational Defense Sigint
Bus & Motor
Unknown
Mass
~300 kg wet, ~300 kg dry
Launch date (UTC)
2022-10-14 (4 years ago)
Launch vehicle
CHANG ZHENG 2D
Launch site
Xichang Space Center, China (XSC)
Object type
Payload
Rocket body
Debris
Shape & HBR
Box + 2 Pan, 2.5 m
Radar Cross Section
11.063 m², Large (>1 m²)

Expand to show TLE details & history
Last TLE update: 1 day ago

TLE from 1 day ago
0 YAOGAN-36 02C
1 54045U 22133D   26172.11366101  .00037384  00000-0  66403-3 0  9993
2 54045  34.9899  47.9292 0009320 270.7138  89.2517 15.49107952205830
Epoch: 2026-06-21T02:43Z
TLE epoch observation values (Epoch: 2026-06-21T02:43:40.311Z)
Latitude
0.00001°
Longitude
97.69266°
Altitude
418.151 km
Speed
7.663 km/s
True Right ascension
03h 11m 43s
True Declination
0° 00' 00"
Sunlit
Object was in daylight at epoch
Visualization orbit readout
Latitude
Unknown
Longitude
Unknown
Altitude
Unknown
Speed
Unknown
Apparent Right ascension
Unknown
Apparent Declination
Unknown
Sunlit
N/A
Visualization observer readout
Local Sidereal Time
21:24:52
Azimuth
Unknown
Elevation
Unknown
Doppler factor
Unknown
Orbital elements
Apogee altitude
428.961 km
Perigee altitude
416.285 km
Semi-major axis
6,800.76 km
Eccentricity
0.00093
Inclination
34.9899°
RAAN
47.9292°
Arg. of periapsis
270.7138°
True anomaly
89.35849°
Mean anomaly
89.2517°
Eccentric anomaly
89.3051°
Mean motion
3.86996 °/min
Orbital period
93.02 mins
BSTAR
0.00066403
Loading maneuver chart data...
Computing Atmospheric mass density...
Loading historical data...
Loading historical data...
Loading historical data...
Loading historical data...
Loading historical data...
Loading historical data...
Loading historical data...
Other satellites on launch #133 in the year 2022 (2022-10-14 UTC)

Documentation

Showing up to 5 results
|